EW5095 Weather Reports


time (UTC)temp
C
wind
direction
speed
KPH
gust
KPH
rain 1hr
cm
rain 24hr
cm
rain mn
cm
humidity
%
barometer
mb
20260510060505 26 214 24.1 35.4 0.00 0.00 0.00 38 1005.8
20260510060005 26 214 22.5 35.4 0.00 0.00 0.00 37 1005.9
20260510055006 26 198 22.5 38.6 0.00 0.00 0.00 37 1005.8
20260510054504 26 203 22.5 38.6 0.00 0.00 0.00 36 1005.8
20260510054005 26 204 22.5 38.6 0.00 0.00 0.00 36 1005.7
20260510053504 26 213 24.1 38.6 0.00 0.00 0.00 36 1005.7
20260510053005 26 209 27.4 41.8 0.00 0.00 0.00 35 1005.6
20260510052005 26 212 24.1 40.2 0.00 0.00 0.00 35 1005.6
20260510051505 27 212 25.7 38.6 0.00 0.00 0.00 34 1005.8
20260510051004 27 202 25.7 38.6 0.00 0.00 0.00 34 1005.9
20260510050505 27 208 25.7 35.4 0.00 0.00 0.00 33 1005.9
20260510050004 27 209 24.1 35.4 0.00 0.00 0.00 33 1005.9
20260510045005 27 194 20.9 37.0 0.00 0.00 0.00 32 1005.9
20260510044504 27 199 20.9 35.4 0.00 0.00 0.00 31 1005.9
20260510044004 27 205 20.9 32.2 0.00 0.00 0.00 31 1005.9
20260510043505 27 205 20.9 32.2 0.00 0.00 0.00 30 1006.1
20260510043005 28 202 22.5 37.0 0.00 0.00 0.00 30 1006.0
20260510042504 28 194 24.1 37.0 0.00 0.00 0.00 30 1006.0
20260510042004 28 217 25.7 37.0 0.00 0.00 0.00 29 1005.9
20260510041505 28 207 25.7 37.0 0.00 0.00 0.00 29 1005.9
20260510041004 28 208 22.5 35.4 0.00 0.00 0.00 29 1005.8
20260510040504 28 199 22.5 45.1 0.00 0.00 0.00 29 1005.8
20260510040004 28 203 20.9 45.1 0.00 0.00 0.00 29 1005.9
20260510035504 28 209 20.9 45.1 0.00 0.00 0.00 28 1006.0
20260510035005 28 211 22.5 45.1 0.00 0.00 0.00 28 1006.0
20260510034005 28 213 20.9 45.1 0.00 0.00 0.00 28 1005.8
20260510033505 28 215 20.9 33.8 0.00 0.00 0.00 28 1005.9
20260510033005 28 208 20.9 33.8 0.00 0.00 0.00 27 1005.9
20260510032504 28 208 20.9 33.8 0.00 0.00 0.00 27 1005.8
20260510032004 28 205 20.9 33.8 0.00 0.00 0.00 27 1005.7
20260510031504 28 204 19.3 33.8 0.00 0.00 0.00 26 1005.7
20260510031005 28 195 16.1 33.8 0.00 0.00 0.00 26 1005.7
20260510030504 29 207 17.7 29.0 0.00 0.00 0.00 26 1005.6
20260510030004 29 204 19.3 27.4 0.00 0.00 0.00 26 1005.6
20260510025504 29 201 16.1 27.4 0.00 0.00 0.00 26 1005.5
20260510025005 29 205 16.1 27.4 0.00 0.00 0.00 26 1005.5
20260510024004 29 204 16.1 29.0 0.00 0.00 0.00 26 1005.4
20260510023505 30 193 11.3 29.0 0.00 0.00 0.00 25 1005.3
20260510022505 30 198 11.3 19.3 0.00 0.00 0.00 23 1005.0
20260510022004 30 204 11.3 19.3 0.00 0.00 0.00 23 1005.1
20260510021505 30 206 9.7 16.1 0.00 0.00 0.00 22 1005.0
20260510021004 30 210 11.3 19.3 0.00 0.00 0.00 21 1005.0
20260510020504 31 208 12.9 20.9 0.00 0.00 0.00 21 1004.8
20260510020005 31 217 14.5 20.9 0.00 0.00 0.00 21 1004.7
20260510015504 31 213 14.5 24.1 0.00 0.00 0.00 20 1004.8
20260510015005 31 215 14.5 24.1 0.00 0.00 0.00 20 1004.6
20260510014504 31 212 12.9 24.1 0.00 0.00 0.00 19 1004.7
20260510014004 31 222 14.5 25.7 0.00 0.00 0.00 18 1004.7
20260510013005 32 220 12.9 20.9 0.00 0.00 0.00 18 1004.5
20260510012505 32 216 12.9 20.9 0.00 0.00 0.00 18 1004.4
20260510012004 32 215 11.3 20.9 0.00 0.00 0.00 17 1004.4
20260510011504 32 215 12.9 22.5 0.00 0.00 0.00 17 1004.4
20260510011004 33 215 16.1 29.0 0.00 0.00 0.00 16 1004.4
20260510010504 33 216 20.9 29.0 0.00 0.00 0.00 16 1004.3
20260510010004 33 228 19.3 32.2 0.00 0.00 0.00 16 1004.3
20260510005504 33 207 16.1 32.2 0.00 0.00 0.00 16 1004.3
20260510005005 33 222 19.3 29.0 0.00 0.00 0.00 16 1004.3
20260510004004 34 216 19.3 32.2 0.00 0.00 0.00 16 1004.2
20260510003504 34 225 19.3 32.2 0.00 0.00 0.00 16 1004.4
20260510003004 34 232 20.9 33.8 0.00 0.00 0.00 16 1004.3
20260510002504 34 239 19.3 33.8 0.00 0.00 0.00 16 1004.3
20260510002004 34 218 19.3 32.2 0.00 0.00 0.00 16 1004.3
20260510001504 35 213 19.3 32.2 0.00 0.00 0.00 15 1004.4
20260510001004 35 238 20.9 35.4 0.00 0.00 0.00 15 1004.5
20260510000004 35 207 22.5 33.8 0.00 0.00 0.00 16 1004.4
20260509235504 35 211 22.5 32.2 0.00 0.00 0.00 17 1004.4
20260509235004 35 210 22.5 37.0 0.00 0.00 0.00 16 1004.5
20260509234005 35 226 19.3 35.4 0.00 0.00 0.00 16 1004.5
20260509233504 35 190 20.9 35.4 0.00 0.00 0.00 16 1004.5
20260509233004 35 225 22.5 35.4 0.00 0.00 0.00 16 1004.7
20260509232504 35 212 24.1 38.6 0.00 0.00 0.00 16 1004.8
20260509232004 35 205 22.5 38.6 0.00 0.00 0.00 16 1004.7
20260509231505 36 207 19.3 33.8 0.00 0.00 0.00 15 1004.6
20260509231004 36 202 20.9 33.8 0.00 0.00 0.00 15 1004.8
20260509230504 36 221 20.9 32.2 0.00 0.00 0.00 15 1004.9
20260509230004 36 240 19.3 32.2 0.00 0.00 0.00 17 1004.9
20260509225005 36 225 19.3 45.1 0.00 0.00 0.00 15 1005.2
20260509224004 36 230 16.1 35.4 0.00 0.00 0.00 17 1005.1
20260509223504 36 236 17.7 35.4 0.00 0.00 0.00 17 1005.2
20260509223004 36 212 19.3 29.0 0.00 0.00 0.00 16 1005.4
20260509222504 36 212 20.9 38.6 0.00 0.00 0.00 16 1005.5
20260509222004 36 230 19.3 38.6 0.00 0.00 0.00 16 1005.6
20260509221004 36 260 22.5 41.8 0.00 0.00 0.00 17 1005.7
20260509220504 36 215 22.5 41.8 0.00 0.00 0.00 18 1005.7
20260509215503 36 215 20.9 33.8 0.00 0.00 0.00 18 1005.8
20260509215004 36 247 22.5 38.6 0.00 0.00 0.00 18 1005.8
20260509214504 36 222 20.9 38.6 0.00 0.00 0.00 17 1005.8
20260509214005 36 216 19.3 32.2 0.00 0.00 0.00 18 1005.9
20260509213504 36 225 19.3 32.2 0.00 0.00 0.00 18 1006.1
20260509212504 36 265 19.3 38.6 0.00 0.00 0.00 18 1006.1
20260509212004 36 237 17.7 38.6 0.00 0.00 0.00 18 1006.3
20260509211504 35 234 20.9 33.8 0.00 0.00 0.00 19 1006.2
20260509211004 35 204 22.5 38.6 0.00 0.00 0.00 18 1006.3
20260509210503 35 213 20.9 38.6 0.00 0.00 0.00 18 1006.5
20260509205004 36 194 20.9 33.8 0.00 0.00 0.00 18 1006.8
20260509203504 36 252 22.5 35.4 0.00 0.00 0.00 19 1007.1
20260509203005 36 256 20.9 35.4 0.00 0.00 0.00 17 1007.2
20260509202505 36 237 19.3 35.4 0.00 0.00 0.00 17 1007.3
20260509202004 36 203 19.3 37.0 0.00 0.00 0.00 19 1007.3
20260509201505 36 206 20.9 41.8 0.00 0.00 0.00 18 1007.5
20260509200004 35 233 20.9 35.4 0.00 0.00 0.00 19 1007.7
20260509195505 36 230 20.9 35.4 0.00 0.00 0.00 19 1007.7
20260509195004 36 207 19.3 32.2 0.00 0.00 0.00 20 1007.8
20260509194004 35 230 19.3 29.0 0.00 0.00 0.00 19 1007.9
20260509193504 35 205 19.3 29.0 0.00 0.00 0.00 19 1008.0
20260509193005 35 241 14.5 32.2 0.00 0.00 0.00 21 1008.1
20260509192504 35 234 16.1 32.2 0.00 0.00 0.00 22 1008.1
20260509192004 35 265 19.3 25.7 0.00 0.00 0.00 22 1008.2
20260509191504 34 220 19.3 35.4 0.00 0.00 0.00 23 1008.3
20260509191004 34 216 19.3 35.4 0.00 0.00 0.00 23 1008.3
20260509190505 34 225 16.1 33.8 0.00 0.00 0.00 23 1008.3
20260509185504 33 219 19.3 27.4 0.00 0.00 0.00 25 1008.5
20260509185005 33 241 19.3 27.4 0.00 0.00 0.00 25 1008.7
20260509184504 33 227 19.3 27.4 0.00 0.00 0.00 27 1008.8
20260509184005 33 223 19.3 29.0 0.00 0.00 0.00 27 1008.9
20260509183005 33 206 19.3 32.2 0.00 0.00 0.00 28 1008.9
20260509182004 33 218 16.1 27.4 0.00 0.00 0.00 29 1009.0
20260509181504 33 216 17.7 29.0 0.00 0.00 0.00 28 1009.0
20260509180505 32 245 16.1 27.4 0.00 0.00 0.00 30 1009.3
20260509180004 32 207 14.5 27.4 0.00 0.00 0.00 31 1009.4
20260509175504 32 212 16.1 32.2 0.00 0.00 0.00 31 1009.5
20260509175005 32 202 19.3 32.2 0.00 0.00 0.00 32 1009.7
20260509174505 32 254 19.3 27.4 0.00 0.00 0.00 33 1009.8
20260509174005 31 209 16.1 27.4 0.00 0.00 0.00 34 1009.8
20260509173504 31 200 16.1 27.4 0.00 0.00 0.00 34 1009.9
20260509173005 31 263 17.7 27.4 0.00 0.00 0.00 35 1009.9
20260509172004 30 202 16.1 25.7 0.00 0.00 0.00 37 1010.0
20260509171504 30 203 14.5 24.1 0.00 0.00 0.00 36 1010.3
20260509171006 30 214 14.5 29.0 0.00 0.00 0.00 37 1010.3
20260509170504 30 191 16.1 29.0 0.00 0.00 0.00 37 1010.4
20260509170004 30 229 16.1 27.4 0.00 0.00 0.00 38 1010.4
20260509165504 30 237 19.3 27.4 0.00 0.00 0.00 39 1010.4
20260509165004 29 216 19.3 29.0 0.00 0.00 0.00 39 1010.4
20260509164004 29 224 16.1 29.0 0.00 0.00 0.00 40 1010.6
20260509163504 28 214 16.1 25.7 0.00 0.00 0.00 41 1010.5
20260509163004 28 206 16.1 25.7 0.00 0.00 0.00 41 1010.6
20260509162505 28 189 16.1 25.7 0.00 0.00 0.00 41 1010.6
20260509162004 28 221 14.5 25.7 0.00 0.00 0.00 44 1010.8
20260509161004 27 223 14.5 27.4 0.00 0.00 0.00 45 1010.8
20260509155504 27 221 16.1 25.7 0.00 0.00 0.00 48 1010.9
20260509155005 27 191 16.1 25.7 0.00 0.00 0.00 48 1010.9
20260509154504 27 214 16.1 25.7 0.00 0.00 0.00 49 1010.9
20260509153504 26 202 11.3 25.7 0.00 0.00 0.00 50 1011.1
20260509153004 26 197 11.3 22.5 0.00 0.00 0.00 51 1011.1
20260509152504 26 194 12.9 22.5 0.00 0.00 0.00 51 1011.1
20260509152004 26 228 11.3 22.5 0.00 0.00 0.00 51 1011.1
20260509151504 26 250 12.9 20.9 0.00 0.00 0.00 51 1011.1
20260509151004 26 247 11.3 19.3 0.00 0.00 0.00 52 1011.1
20260509150004 25 230 11.3 20.9 0.00 0.00 0.00 55 1011.3
20260509145504 25 230 11.3 20.9 0.00 0.00 0.00 56 1011.3
20260509145004 25 251 9.7 19.3 0.00 0.00 0.00 56 1011.3
20260509144504 24 245 8.0 16.1 0.00 0.00 0.00 58 1011.4
20260509143504 23 249 8.0 16.1 0.00 0.00 0.00 59 1011.4
20260509143004 23 242 8.0 16.1 0.00 0.00 0.00 60 1011.5
20260509142504 22 230 9.7 16.1 0.00 0.00 0.00 61 1011.6
20260509142004 22 223 9.7 16.1 0.00 0.00 0.00 61 1011.6
20260509141504 22 237 9.7 16.1 0.00 0.00 0.00 62 1011.7
20260509141005 21 228 9.7 19.3 0.00 0.00 0.00 62 1011.5
20260509140504 21 197 9.7 19.3 0.00 0.00 0.00 64 1011.6
20260509140005 21 183 8.0 19.3 0.00 0.00 0.00 66 1011.6
20260509135504 20 215 3.2 19.3 0.00 0.00 0.00 65 1011.8
20260509135004 19 237 3.2 8.0 0.00 0.00 0.00 65 1011.8
20260509134503 18 243 1.6 4.8 0.00 0.00 0.00 64 1011.8
20260509134004 18 296 0.0 1.6 0.00 0.00 0.00 63 1011.7
20260509133503 17 296 1.6 3.2 0.00 0.00 0.00 62 1011.7
20260509133004 17 296 0.0 3.2 0.00 0.00 0.00 64 1011.6
20260509132504 16 296 0.0 3.2 0.00 0.00 0.00 65 1011.5
20260509132003 15 296 1.6 4.8 0.00 0.00 0.00 65 1011.3
20260509131504 15 296 1.6 4.8 0.00 0.00 0.00 65 1011.4
20260509131004 14 296 1.6 4.8 0.00 0.00 0.00 64 1011.2
20260509130503 14 296 1.6 4.8 0.00 0.00 0.00 63 1011.0
20260509130003 13 296 1.6 4.8 0.00 0.00 0.00 63 1011.2
20260509125503 13 296 3.2 4.8 0.00 0.00 0.00 63 1011.3
20260509125006 13 296 3.2 4.8 0.00 0.00 0.00 61 1011.1
20260509124506 12 295 3.2 4.8 0.00 0.00 0.00 60 1011.2
20260509123506 12 288 1.6 4.8 0.00 0.00 0.00 58 1011.2
20260509123006 12 288 1.6 4.8 0.00 0.00 0.00 58 1011.1
20260509122506 12 288 1.6 4.8 0.00 0.00 0.00 58 1011.1
20260509121506 13 211 1.6 3.2 0.00 0.00 0.00 57 1010.9
20260509121006 13 211 1.6 4.8 0.00 0.00 0.00 57 1010.9
20260509120506 13 211 3.2 4.8 0.00 0.00 0.00 57 1010.9
20260509120006 13 211 3.2 4.8 0.00 0.00 0.00 57 1010.8
20260509115506 13 211 3.2 4.8 0.00 0.00 0.00 57 1010.8
20260509114506 13 313 1.6 3.2 0.00 0.00 0.00 57 1010.7
20260509114007 13 313 1.6 3.2 0.00 0.00 0.00 57 1010.6
20260509113505 13 313 1.6 4.8 0.00 0.00 0.00 57 1010.6
20260509113006 14 313 1.6 4.8 0.00 0.00 0.00 57 1010.7
20260509112506 14 313 3.2 4.8 0.00 0.00 0.00 56 1010.7
20260509112006 14 313 1.6 4.8 0.00 0.00 0.00 56 1010.6
20260509111506 14 313 1.6 4.8 0.00 0.00 0.00 55 1010.7
20260509111005 15 313 1.6 4.8 0.00 0.00 0.00 55 1010.6
20260509110505 15 171 0.0 3.2 0.00 0.00 0.00 54 1010.7
20260509110005 15 171 0.0 3.2 0.00 0.00 0.00 53 1010.6
20260509105505 15 171 0.0 3.2 0.00 0.00 0.00 52 1010.6
20260509105006 16 171 1.6 4.8 0.00 0.00 0.00 52 1010.5
20260509104506 16 171 3.2 4.8 0.00 0.00 0.00 52 1010.5
20260509104006 16 171 3.2 4.8 0.00 0.00 0.00 52 1010.4
20260509103005 16 87 6.4 11.3 0.00 0.00 0.00 53 1009.9
20260509102505 16 84 8.0 11.3 0.00 0.00 0.00 53 1010.1
20260509102006 16 64 8.0 16.1 0.00 0.00 0.00 52 1010.1
20260509101506 16 67 8.0 16.1 0.00 0.00 0.00 52 1009.9
20260509101005 16 55 8.0 16.1 0.00 0.00 0.00 52 1009.8
20260509100505 16 45 9.7 16.1 0.00 0.00 0.00 51 1009.8
20260509100006 17 40 9.7 19.3 0.00 0.00 0.00 49 1009.7
20260509095506 17 59 9.7 19.3 0.00 0.00 0.00 49 1009.8
20260509095006 17 47 9.7 19.3 0.00 0.00 0.00 48 1009.9
20260509094506 17 46 8.0 16.1 0.00 0.00 0.00 48 1009.9
20260509094006 17 50 4.8 9.7 0.00 0.00 0.00 47 1009.9
20260509093506 17 46 4.8 9.7 0.00 0.00 0.00 45 1009.8
20260509093005 16 46 4.8 11.3 0.00 0.00 0.00 44 1009.7
20260509092506 16 40 4.8 11.3 0.00 0.00 0.00 43 1009.8
20260509092005 16 51 4.8 9.7 0.00 0.00 0.00 41 1009.9
20260509091006 16 20 4.8 9.7 0.00 0.00 0.00 40 1009.8
20260509090506 16 56 4.8 11.3 0.00 0.00 0.00 39 1010.0
20260509090005 16 42 4.8 11.3 0.00 0.00 0.00 39 1010.1
20260509085506 17 70 4.8 9.7 0.00 0.00 0.00 39 1010.2
20260509085006 17 82 4.8 9.7 0.00 0.00 0.00 39 1010.3
20260509084505 16 67 4.8 8.0 0.00 0.00 0.00 38 1010.2
20260509083506 16 24 4.8 4.8 0.00 0.00 0.00 38 1010.2
20260509083006 17 5 4.8 4.8 0.00 0.00 0.00 38 1010.1
20260509082506 17 3 4.8 4.8 0.00 0.00 0.00 38 1010.0
20260509082005 17 325 4.8 9.7 0.00 0.00 0.00 37 1010.0
20260509081006 17 254 4.8 9.7 0.00 0.00 0.00 38 1010.0
20260509080505 17 342 4.8 9.7 0.00 0.00 0.00 37 1010.0
20260509080005 17 343 4.8 4.8 0.00 0.00 0.00 37 1010.0
20260509075005 17 263 1.6 4.8 0.00 0.00 0.00 36 1010.2
20260509074505 18 209 1.6 4.8 0.00 0.00 0.00 36 1010.4
20260509073505 18 209 4.8 11.3 0.00 0.00 0.00 36 1010.6
20260509073005 18 351 3.2 4.8 0.00 0.00 0.00 36 1010.5
20260509072505 18 342 1.6 4.8 0.00 0.00 0.00 36 1010.4
20260509072005 18 342 0.0 3.2 0.00 0.00 0.00 35 1010.5
20260509071005 18 342 3.2 4.8 0.00 0.00 0.00 35 1010.4
20260509070505 18 342 3.2 4.8 0.00 0.00 0.00 35 1010.4
20260509070005 18 327 4.8 8.0 0.00 0.00 0.00 35 1010.5
20260509065506 18 338 4.8 8.0 0.00 0.00 0.00 35 1010.4
20260509065005 18 335 4.8 8.0 0.00 0.00 0.00 35 1010.4
20260509064505 18 339 4.8 9.7 0.00 0.00 0.00 35 1010.4
20260509064005 18 333 4.8 9.7 0.00 0.00 0.00 35 1010.5
20260509063505 19 349 4.8 8.0 0.00 0.00 0.00 35 1010.4
20260509063005 19 329 4.8 8.0 0.00 0.00 0.00 34 1010.4
20260509062506 19 324 3.2 4.8 0.00 0.00 0.00 34 1010.3
20260509062005 20 278 3.2 4.8 0.00 0.00 0.00 33 1010.3